Location: Bishop�s Knoyle
(51.0728°N, 2.1714°W)
Time: 01:25:44
(UTC+00:00)

ISS - Pass Details

Date: 29 September 2021
Orbit: 417 x 423 km, 51.6° (Epoch: 27 October)

Event Time Altitude Azimuth Distance (km) Brightness Sun altitude
Rises 18:10:58 0° 275° (W) 2,364 3.1 -4.0°
Reaches altitude 10° 18:13:03 10° 276° (W) 1,501 1.0 -4.3°
Maximum altitude 18:16:26 80° 4° (N) 431 -3.7 -4.9°
Drops below altitude 10° 18:19:48 10° 92° (E) 1,503 -1.6 -5.4°
Enters shadow 18:20:21 - 92° (E) 1,723 -1.4 -5.5°
